| time (UTC) | temp F | wind direction | speed MPH | gust MPH | rain 1hr in | rain 24hr in | rain mn in | humidity % | barometer mb |
| 20260902031504 | 69 | 299 | 0.0 | 0.0 | 0.00 | 0.00 | 0.00 | 93 | 1012.3 |
| 20260902031048 | 69 | 299 | 0.0 | 0.0 | 0.00 | 0.00 | 0.00 | 93 | 1012.2 |
| 20260902030607 | 69 | 299 | 0.0 | 0.0 | 0.00 | 0.00 | 0.00 | 93 | 1012.2 |
| 20260902030019 | 69 | 299 | 0.0 | 0.0 | 0.00 | 0.00 | 0.00 | 93 | 1012.1 |
| 20260902025603 | 69 | 299 | 0.0 | 0.0 | 0.00 | 0.00 | 0.00 | 92 | 1012.1 |
| 20260902025124 | 69 | 299 | 0.0 | 0.0 | 0.00 | 0.00 | 0.00 | 92 | 1012.0 |
| 20260902024531 | 69 | 299 | 0.0 | 0.0 | 0.00 | 0.00 | 0.00 | 91 | 1011.9 |
| 20260902024006 | 69 | 299 | 0.0 | 0.0 | 0.00 | 0.00 | 0.00 | 91 | 1011.9 |
| 20260902023536 | 69 | 299 | 0.0 | 0.0 | 0.00 | 0.00 | 0.00 | 91 | 1011.9 |
| 20260902023116 | 70 | 299 | 0.0 | 0.0 | 0.00 | 0.00 | 0.00 | 91 | 1012.0 |
| 20260902022539 | 70 | 299 | 0.0 | 0.0 | 0.00 | 0.00 | 0.00 | 90 | 1011.8 |
| 20260902022014 | 70 | 299 | 0.0 | 0.0 | 0.00 | 0.00 | 0.00 | 91 | 1011.8 |
| 20260902021551 | 70 | 299 | 0.0 | 0.0 | 0.00 | 0.00 | 0.00 | 91 | 1011.9 |
| 20260902021009 | 70 | 299 | 0.0 | 0.0 | 0.00 | 0.00 | 0.00 | 90 | 1012.0 |
| 20260902020526 | 70 | 299 | 0.0 | 0.0 | 0.00 | 0.00 | 0.00 | 88 | 1012.0 |
| 20260902020047 | 71 | 299 | 0.0 | 0.0 | 0.00 | 0.00 | 0.00 | 88 | 1012.0 |
| 20260902015519 | 71 | 299 | 0.0 | 0.0 | 0.00 | 0.00 | 0.00 | 88 | 1011.9 |
| 20260902015038 | 71 | 299 | 0.0 | 0.0 | 0.00 | 0.00 | 0.00 | 87 | 1011.9 |
| 20260902014558 | 71 | 299 | 0.0 | 0.0 | 0.00 | 0.00 | 0.00 | 87 | 1011.8 |
| 20260902014032 | 72 | 299 | 0.0 | 0.0 | 0.00 | 0.00 | 0.00 | 86 | 1011.6 |
| 20260902013502 | 72 | 299 | 0.0 | 0.0 | 0.00 | 0.00 | 0.00 | 85 | 1011.5 |
| 20260902013024 | 72 | 299 | 0.0 | 0.0 | 0.00 | 0.00 | 0.00 | 84 | 1011.6 |
| 20260902012547 | 73 | 299 | 0.0 | 0.0 | 0.00 | 0.00 | 0.00 | 84 | 1011.6 |
| 20260902012018 | 73 | 299 | 0.0 | 0.0 | 0.00 | 0.00 | 0.00 | 84 | 1011.5 |
| 20260902011540 | 74 | 299 | 0.0 | 0.0 | 0.00 | 0.00 | 0.00 | 83 | 1011.5 |
| 20260902011104 | 74 | 299 | 0.0 | 0.0 | 0.00 | 0.00 | 0.00 | 83 | 1011.5 |
| 20260902010528 | 75 | 299 | 0.0 | 0.0 | 0.00 | 0.00 | 0.00 | 83 | 1011.4 |
| 20260902010101 | 75 | 299 | 0.0 | 0.0 | 0.00 | 0.00 | 0.00 | 82 | 1011.4 |
| 20260902005517 | 76 | 299 | 0.0 | 0.0 | 0.00 | 0.00 | 0.00 | 82 | 1011.4 |
| 20260902005103 | 76 | 299 | 0.0 | 0.0 | 0.00 | 0.00 | 0.00 | 80 | 1011.4 |
| 20260902004517 | 77 | 299 | 0.0 | 0.0 | 0.00 | 0.00 | 0.00 | 80 | 1011.4 |
| 20260902004040 | 77 | 299 | 0.0 | 0.0 | 0.00 | 0.00 | 0.00 | 79 | 1011.5 |
| 20260902003558 | 78 | 299 | 0.0 | 0.0 | 0.00 | 0.00 | 0.00 | 80 | 1011.4 |
| 20260902003008 | 78 | 299 | 0.0 | 0.0 | 0.00 | 0.00 | 0.00 | 79 | 1011.3 |
| 20260902002543 | 79 | 299 | 0.0 | 0.0 | 0.00 | 0.00 | 0.00 | 79 | 1011.4 |
| 20260902002010 | 79 | 299 | 0.0 | 0.0 | 0.00 | 0.00 | 0.00 | 75 | 1011.5 |
| 20260902001543 | 79 | 299 | 0.0 | 0.0 | 0.00 | 0.00 | 0.00 | 75 | 1011.6 |
| 20260902001014 | 79 | 299 | 0.0 | 0.0 | 0.00 | 0.00 | 0.00 | 73 | 1011.6 |
| 20260902000544 | 79 | 299 | 0.0 | 1.0 | 0.00 | 0.00 | 0.00 | 73 | 1011.7 |
| 20260902000007 | 79 | 299 | 0.0 | 1.0 | 0.00 | 0.00 | 0.00 | 72 | 1011.8 |
| 20260901235554 | 80 | 299 | 0.0 | 0.0 | 0.00 | 0.00 | 0.00 | 72 | 1011.8 |
| 20260901235027 | 80 | 299 | 0.0 | 0.0 | 0.00 | 0.00 | 0.00 | 71 | 1011.8 |
| 20260901234659 | 80 | 299 | 0.0 | 0.0 | 0.00 | 0.00 | 0.00 | 71 | 1011.8 |
| 20260901234012 | 80 | 299 | 0.0 | 0.0 | 0.00 | 0.00 | 0.00 | 74 | 1011.8 |
| 20260901233558 | 80 | 299 | 0.0 | 0.0 | 0.00 | 0.00 | 0.00 | 72 | 1011.7 |
| 20260901233040 | 80 | 299 | 0.0 | 0.0 | 0.00 | 0.00 | 0.00 | 70 | 1011.8 |
| 20260901232606 | 80 | 299 | 0.0 | 0.0 | 0.00 | 0.00 | 0.00 | 70 | 1011.7 |
| 20260901232039 | 80 | 299 | 0.0 | 0.0 | 0.00 | 0.00 | 0.00 | 70 | 1011.8 |
| 20260901231609 | 80 | 299 | 0.0 | 2.0 | 0.00 | 0.00 | 0.00 | 68 | 1011.7 |
| 20260901231048 | 80 | 299 | 0.0 | 2.0 | 0.00 | 0.00 | 0.00 | 69 | 1011.6 |
| 20260901230521 | 81 | 299 | 0.0 | 3.0 | 0.00 | 0.00 | 0.00 | 68 | 1011.6 |
| 20260901230005 | 81 | 299 | 0.0 | 3.0 | 0.00 | 0.00 | 0.00 | 69 | 1011.7 |
| 20260901225547 | 81 | 290 | 0.0 | 0.0 | 0.00 | 0.00 | 0.00 | 69 | 1011.7 |
| 20260901225030 | 81 | 290 | 0.0 | 2.0 | 0.00 | 0.00 | 0.00 | 70 | 1011.7 |
| 20260901224510 | 81 | 290 | 0.0 | 2.0 | 0.00 | 0.00 | 0.00 | 69 | 1011.8 |
| 20260901224054 | 81 | 286 | 0.0 | 2.0 | 0.00 | 0.00 | 0.00 | 69 | 1011.7 |
| 20260901223521 | 81 | 286 | 0.0 | 1.0 | 0.00 | 0.00 | 0.00 | 68 | 1011.8 |
| 20260901223018 | 82 | 286 | 0.0 | 1.0 | 0.00 | 0.00 | 0.00 | 67 | 1011.7 |
| 20260901222541 | 82 | 286 | 0.0 | 1.0 | 0.00 | 0.00 | 0.00 | 67 | 1011.7 |
| 20260901222023 | 82 | 286 | 0.0 | 1.0 | 0.00 | 0.00 | 0.00 | 66 | 1011.7 |
| 20260901221622 | 82 | 286 | 0.0 | 2.0 | 0.00 | 0.00 | 0.00 | 67 | 1011.6 |
| 20260901221044 | 82 | 286 | 0.0 | 5.0 | 0.00 | 0.00 | 0.00 | 66 | 1011.7 |
| 20260901220523 | 82 | 275 | 2.0 | 5.0 | 0.00 | 0.00 | 0.00 | 65 | 1011.7 |
| 20260901220114 | 82 | 317 | 0.0 | 3.0 | 0.00 | 0.00 | 0.00 | 65 | 1011.6 |
| 20260901215508 | 82 | 317 | 1.0 | 3.0 | 0.00 | 0.00 | 0.00 | 65 | 1011.7 |
| 20260901215053 | 82 | 316 | 0.0 | 3.0 | 0.00 | 0.00 | 0.00 | 65 | 1011.7 |
| 20260901214513 | 82 | 317 | 0.0 | 2.0 | 0.00 | 0.00 | 0.00 | 65 | 1011.6 |
| 20260901214043 | 82 | 317 | 1.0 | 2.0 | 0.00 | 0.00 | 0.00 | 64 | 1011.6 |
| 20260901213540 | 82 | 317 | 0.0 | 4.0 | 0.00 | 0.00 | 0.00 | 63 | 1011.6 |
| 20260901213124 | 82 | 317 | 2.0 | 4.0 | 0.00 | 0.00 | 0.00 | 63 | 1011.7 |
| 20260901212514 | 82 | 307 | 1.0 | 4.0 | 0.00 | 0.00 | 0.00 | 64 | 1011.7 |
| 20260901212100 | 82 | 307 | 0.0 | 4.0 | 0.00 | 0.00 | 0.00 | 63 | 1011.6 |
| 20260901211534 | 82 | 306 | 1.0 | 4.0 | 0.00 | 0.00 | 0.00 | 63 | 1011.6 |
| 20260901211029 | 82 | 319 | 1.0 | 4.0 | 0.00 | 0.00 | 0.00 | 66 | 1011.6 |
| 20260901210505 | 82 | 323 | 1.0 | 3.0 | 0.00 | 0.00 | 0.00 | 65 | 1011.6 |
| 20260901210035 | 82 | 324 | 0.0 | 2.0 | 0.00 | 0.00 | 0.00 | 64 | 1011.7 |
| 20260901205522 | 82 | 324 | 0.0 | 2.0 | 0.00 | 0.00 | 0.00 | 64 | 1011.7 |
| 20260901205019 | 82 | 324 | 0.0 | 2.0 | 0.00 | 0.00 | 0.00 | 64 | 1011.6 |
| 20260901204546 | 82 | 324 | 0.0 | 2.0 | 0.00 | 0.00 | 0.00 | 64 | 1011.5 |
| 20260901204021 | 82 | 324 | 0.0 | 2.0 | 0.00 | 0.00 | 0.00 | 66 | 1011.5 |
| 20260901203545 | 82 | 324 | 0.0 | 3.0 | 0.00 | 0.00 | 0.00 | 61 | 1011.6 |
| 20260901203036 | 83 | 325 | 0.0 | 4.0 | 0.00 | 0.00 | 0.00 | 63 | 1011.9 |
| 20260901202532 | 83 | 309 | 2.0 | 5.0 | 0.00 | 0.00 | 0.00 | 61 | 1012.0 |
| 20260901202103 | 83 | 308 | 2.0 | 5.0 | 0.00 | 0.00 | 0.00 | 61 | 1012.1 |
| 20260901201533 | 83 | 304 | 2.0 | 5.0 | 0.00 | 0.00 | 0.00 | 62 | 1012.2 |
| 20260901201001 | 83 | 317 | 1.0 | 3.0 | 0.00 | 0.00 | 0.00 | 60 | 1012.1 |
| 20260901200536 | 83 | 316 | 0.0 | 3.0 | 0.00 | 0.00 | 0.00 | 60 | 1012.1 |
| 20260901200013 | 83 | 319 | 1.0 | 3.0 | 0.00 | 0.00 | 0.00 | 59 | 1011.9 |
| 20260901195600 | 83 | 319 | 0.0 | 3.0 | 0.00 | 0.00 | 0.00 | 64 | 1011.9 |
| 20260901195032 | 82 | 319 | 1.0 | 3.0 | 0.00 | 0.00 | 0.00 | 60 | 1012.0 |
| 20260901194553 | 82 | 322 | 0.0 | 5.0 | 0.00 | 0.00 | 0.00 | 60 | 1011.9 |
| 20260901194003 | 83 | 323 | 1.0 | 5.0 | 0.00 | 0.00 | 0.00 | 60 | 1012.2 |
| 20260901193545 | 83 | 321 | 2.0 | 5.0 | 0.00 | 0.00 | 0.00 | 59 | 1012.4 |
| 20260901193127 | 83 | 320 | 2.0 | 4.0 | 0.00 | 0.00 | 0.00 | 59 | 1012.3 |
| 20260901192514 | 83 | 311 | 1.0 | 3.0 | 0.00 | 0.00 | 0.00 | 58 | 1012.0 |
| 20260901192038 | 83 | 310 | 1.0 | 4.0 | 0.00 | 0.00 | 0.00 | 58 | 1012.3 |
| 20260901191557 | 83 | 310 | 0.0 | 4.0 | 0.00 | 0.00 | 0.00 | 58 | 1012.4 |
| 20260901191008 | 83 | 305 | 1.0 | 5.0 | 0.00 | 0.00 | 0.00 | 56 | 1012.3 |
| 20260901190530 | 84 | 294 | 1.0 | 5.0 | 0.00 | 0.00 | 0.00 | 58 | 1012.3 |
| 20260901190109 | 84 | 311 | 0.0 | 3.0 | 0.00 | 0.00 | 0.00 | 59 | 1012.4 |
| 20260901185544 | 85 | 313 | 0.0 | 3.0 | 0.00 | 0.00 | 0.00 | 60 | 1012.3 |
| 20260901185027 | 85 | 296 | 0.0 | 3.0 | 0.00 | 0.00 | 0.00 | 57 | 1012.2 |
| 20260901184604 | 86 | 307 | 0.0 | 4.0 | 0.00 | 0.00 | 0.00 | 58 | 1012.2 |
| 20260901184119 | 86 | 308 | 1.0 | 4.0 | 0.00 | 0.00 | 0.00 | 55 | 1012.3 |
| 20260901183538 | 87 | 192 | 0.0 | 2.0 | 0.00 | 0.00 | 0.00 | 56 | 1011.9 |
| 20260901183033 | 87 | 193 | 0.0 | 3.0 | 0.00 | 0.00 | 0.00 | 57 | 1012.0 |
| 20260901182605 | 86 | 193 | 1.0 | 3.0 | 0.00 | 0.00 | 0.00 | 55 | 1012.1 |
| 20260901182039 | 86 | 199 | 1.0 | 3.0 | 0.00 | 0.00 | 0.00 | 59 | 1012.2 |
| 20260901181558 | 85 | 210 | 0.0 | 4.0 | 0.00 | 0.00 | 0.00 | 60 | 1012.4 |
| 20260901181009 | 85 | 319 | 1.0 | 4.0 | 0.00 | 0.00 | 0.00 | 58 | 1012.5 |
| 20260901180532 | 84 | 312 | 0.0 | 3.0 | 0.00 | 0.00 | 0.00 | 62 | 1012.6 |
| 20260901180049 | 84 | 309 | 0.0 | 3.0 | 0.00 | 0.00 | 0.00 | 60 | 1012.6 |
| 20260901175608 | 84 | 309 | 0.0 | 3.0 | 0.00 | 0.00 | 0.00 | 58 | 1012.8 |
| 20260901175043 | 84 | 302 | 0.0 | 3.0 | 0.00 | 0.00 | 0.00 | 61 | 1012.8 |
| 20260901174604 | 84 | 302 | 0.0 | 2.0 | 0.00 | 0.00 | 0.00 | 59 | 1012.8 |
| 20260901174019 | 85 | 302 | 1.0 | 2.0 | 0.00 | 0.00 | 0.00 | 58 | 1012.8 |
| 20260901173557 | 84 | 304 | 1.0 | 2.0 | 0.00 | 0.00 | 0.00 | 59 | 1012.8 |
| 20260901173006 | 84 | 301 | 0.0 | 2.0 | 0.00 | 0.00 | 0.00 | 59 | 1012.9 |
| 20260901172527 | 84 | 301 | 0.0 | 3.0 | 0.00 | 0.00 | 0.00 | 60 | 1013.0 |
| 20260901172001 | 84 | 301 | 1.0 | 3.0 | 0.00 | 0.00 | 0.00 | 55 | 1013.1 |
| 20260901171527 | 85 | 301 | 0.0 | 3.0 | 0.00 | 0.00 | 0.00 | 59 | 1013.1 |
| 20260901171105 | 85 | 299 | 1.0 | 3.0 | 0.00 | 0.00 | 0.00 | 59 | 1013.1 |
| 20260901170523 | 85 | 303 | 0.0 | 3.0 | 0.00 | 0.00 | 0.00 | 61 | 1013.1 |
| 20260901170004 | 84 | 307 | 0.0 | 3.0 | 0.00 | 0.00 | 0.00 | 63 | 1013.0 |
| 20260901165532 | 84 | 307 | 0.0 | 3.0 | 0.00 | 0.00 | 0.00 | 62 | 1013.1 |
| 20260901165007 | 83 | 96 | 0.0 | 4.0 | 0.00 | 0.00 | 0.00 | 66 | 1013.1 |
| 20260901164608 | 83 | 315 | 1.0 | 4.0 | 0.00 | 0.00 | 0.00 | 61 | 1013.1 |
| 20260901164025 | 83 | 93 | 0.0 | 3.0 | 0.00 | 0.00 | 0.00 | 61 | 1013.1 |
| 20260901163545 | 82 | 88 | 1.0 | 5.0 | 0.00 | 0.00 | 0.00 | 67 | 1013.2 |
| 20260901163040 | 82 | 295 | 2.0 | 5.0 | 0.00 | 0.00 | 0.00 | 65 | 1013.2 |
| 20260901162601 | 82 | 316 | 0.0 | 5.0 | 0.00 | 0.00 | 0.00 | 70 | 1013.2 |
| 20260901162033 | 82 | 304 | 2.0 | 5.0 | 0.00 | 0.00 | 0.00 | 66 | 1013.1 |
| 20260901161509 | 81 | 302 | 0.0 | 4.0 | 0.00 | 0.00 | 0.00 | 68 | 1013.3 |
| 20260901161053 | 81 | 302 | 0.0 | 4.0 | 0.00 | 0.00 | 0.00 | 67 | 1013.2 |
| 20260901160518 | 80 | 300 | 0.0 | 3.0 | 0.00 | 0.00 | 0.00 | 66 | 1013.1 |
| 20260901160107 | 80 | 300 | 0.0 | 3.0 | 0.00 | 0.00 | 0.00 | 71 | 1013.0 |
| 20260901155526 | 79 | 277 | 1.0 | 4.0 | 0.00 | 0.00 | 0.00 | 69 | 1013.0 |
| 20260901155059 | 79 | 301 | 2.0 | 4.0 | 0.00 | 0.00 | 0.00 | 71 | 1013.1 |
| 20260901154533 | 80 | 313 | 1.0 | 4.0 | 0.00 | 0.00 | 0.00 | 70 | 1012.9 |
| 20260901154014 | 79 | 318 | 0.0 | 2.0 | 0.00 | 0.00 | 0.00 | 74 | 1012.9 |
| 20260901153600 | 79 | 318 | 0.0 | 1.0 | 0.00 | 0.00 | 0.00 | 72 | 1013.1 |
| 20260901153016 | 79 | 316 | 0.0 | 4.0 | 0.00 | 0.00 | 0.00 | 74 | 1013.0 |
| 20260901152536 | 78 | 317 | 0.0 | 4.0 | 0.00 | 0.00 | 0.00 | 74 | 1013.1 |
| 20260901152056 | 78 | 311 | 0.0 | 3.0 | 0.00 | 0.00 | 0.00 | 73 | 1013.1 |
| 20260901151510 | 78 | 293 | 1.0 | 3.0 | 0.00 | 0.00 | 0.00 | 71 | 1013.1 |
| 20260901151027 | 78 | 314 | 0.0 | 3.0 | 0.00 | 0.00 | 0.00 | 74 | 1013.0 |
| 20260901150501 | 78 | 70 | 0.0 | 3.0 | 0.00 | 0.00 | 0.00 | 76 | 1013.3 |
| 20260901150045 | 77 | 315 | 1.0 | 5.0 | 0.00 | 0.00 | 0.00 | 74 | 1013.3 |
| 20260901145519 | 77 | 317 | 0.0 | 5.0 | 0.00 | 0.00 | 0.00 | 75 | 1013.3 |
| 20260901145102 | 77 | 309 | 1.0 | 4.0 | 0.00 | 0.00 | 0.00 | 75 | 1013.3 |
| 20260901144513 | 76 | 318 | 2.0 | 5.0 | 0.00 | 0.00 | 0.00 | 73 | 1013.4 |
| 20260901144056 | 76 | 311 | 0.0 | 3.0 | 0.00 | 0.00 | 0.00 | 76 | 1013.4 |
| 20260901143522 | 76 | 297 | 0.0 | 4.0 | 0.00 | 0.00 | 0.00 | 79 | 1013.4 |
| 20260901143007 | 75 | 298 | 0.0 | 4.0 | 0.00 | 0.00 | 0.00 | 78 | 1013.4 |
| 20260901142653 | 75 | 302 | 1.0 | 3.0 | 0.00 | 0.00 | 0.00 | 79 | 1013.3 |
| 20260901142024 | 74 | 298 | 1.0 | 4.0 | 0.00 | 0.00 | 0.00 | 80 | 1013.4 |
| 20260901141609 | 74 | 298 | 2.0 | 4.0 | 0.00 | 0.00 | 0.00 | 80 | 1013.4 |
| 20260901141025 | 73 | 317 | 1.0 | 4.0 | 0.00 | 0.00 | 0.00 | 82 | 1013.4 |
| 20260901140606 | 73 | 257 | 1.0 | 3.0 | 0.00 | 0.00 | 0.00 | 83 | 1013.5 |
| 20260901140058 | 72 | 270 | 1.0 | 4.0 | 0.00 | 0.00 | 0.00 | 83 | 1013.5 |
| 20260901135515 | 71 | 320 | 2.0 | 4.0 | 0.00 | 0.00 | 0.00 | 85 | 1013.5 |
| 20260901135036 | 71 | 304 | 1.0 | 4.0 | 0.00 | 0.00 | 0.00 | 87 | 1013.5 |
| 20260901134611 | 70 | 309 | 0.0 | 4.0 | 0.00 | 0.00 | 0.00 | 89 | 1013.6 |
| 20260901134014 | 69 | 309 | 1.0 | 4.0 | 0.00 | 0.00 | 0.00 | 90 | 1013.7 |
| 20260901133542 | 69 | 309 | 1.0 | 4.0 | 0.00 | 0.00 | 0.00 | 92 | 1013.7 |
| 20260901133005 | 68 | 305 | 0.0 | 4.0 | 0.00 | 0.00 | 0.00 | 95 | 1013.8 |
| 20260901132539 | 68 | 302 | 1.0 | 3.0 | 0.00 | 0.00 | 0.00 | 95 | 1013.8 |
| 20260901132057 | 67 | 302 | 0.0 | 2.0 | 0.00 | 0.00 | 0.00 | 96 | 1013.7 |
| 20260901131515 | 67 | 302 | 0.0 | 2.0 | 0.00 | 0.00 | 0.00 | 96 | 1013.6 |
| 20260901131052 | 66 | 301 | 1.0 | 2.0 | 0.00 | 0.00 | 0.00 | 97 | 1013.5 |
| 20260901130512 | 66 | 313 | 0.0 | 2.0 | 0.00 | 0.00 | 0.00 | 97 | 1013.5 |
| 20260901130043 | 66 | 313 | 0.0 | 0.0 | 0.00 | 0.00 | 0.00 | 97 | 1013.4 |
| 20260901125604 | 66 | 313 | 0.0 | 2.0 | 0.00 | 0.00 | 0.00 | 97 | 1013.4 |
| 20260901125042 | 66 | 313 | 0.0 | 2.0 | 0.00 | 0.00 | 0.00 | 98 | 1013.4 |
| 20260901124510 | 66 | 313 | 0.0 | 0.0 | 0.00 | 0.00 | 0.00 | 98 | 1013.3 |
| 20260901124057 | 65 | 313 | 0.0 | 0.0 | 0.00 | 0.00 | 0.00 | 98 | 1013.3 |
| 20260901123515 | 65 | 313 | 0.0 | 0.0 | 0.00 | 0.00 | 0.00 | 98 | 1013.2 |
| 20260901123043 | 65 | 313 | 0.0 | 0.0 | 0.00 | 0.00 | 0.00 | 98 | 1013.3 |
| 20260901122517 | 64 | 313 | 0.0 | 0.0 | 0.00 | 0.00 | 0.00 | 98 | 1013.3 |
| 20260901122041 | 64 | 313 | 0.0 | 2.0 | 0.00 | 0.00 | 0.00 | 97 | 1013.2 |
| 20260901121605 | 64 | 313 | 0.0 | 2.0 | 0.00 | 0.00 | 0.00 | 98 | 1013.2 |
| 20260901121027 | 63 | 313 | 0.0 | 2.0 | 0.00 | 0.00 | 0.00 | 98 | 1013.1 |
| 20260901120600 | 63 | 313 | 0.0 | 1.0 | 0.00 | 0.00 | 0.00 | 98 | 1013.0 |
| 20260901120051 | 63 | 313 | 0.0 | 0.0 | 0.00 | 0.00 | 0.00 | 97 | 1012.9 |
| 20260901115513 | 62 | 313 | 0.0 | 0.0 | 0.00 | 0.00 | 0.00 | 98 | 1012.9 |
| 20260901115059 | 62 | 313 | 0.0 | 0.0 | 0.00 | 0.00 | 0.00 | 97 | 1012.9 |
| 20260901114535 | 62 | 313 | 0.0 | 0.0 | 0.00 | 0.00 | 0.00 | 97 | 1012.7 |
| 20260901114058 | 62 | 313 | 0.0 | 0.0 | 0.00 | 0.00 | 0.00 | 97 | 1012.8 |
| 20260901113535 | 62 | 313 | 0.0 | 0.0 | 0.00 | 0.00 | 0.00 | 97 | 1012.7 |
| 20260901113015 | 62 | 313 | 0.0 | 0.0 | 0.00 | 0.00 | 0.00 | 96 | 1012.6 |
| 20260901112606 | 62 | 313 | 0.0 | 0.0 | 0.00 | 0.00 | 0.00 | 97 | 1012.5 |
| 20260901112040 | 62 | 313 | 0.0 | 0.0 | 0.00 | 0.00 | 0.00 | 96 | 1012.4 |
| 20260901111516 | 62 | 313 | 0.0 | 0.0 | 0.00 | 0.00 | 0.00 | 97 | 1012.3 |
| 20260901111046 | 62 | 313 | 0.0 | 0.0 | 0.00 | 0.00 | 0.00 | 97 | 1012.1 |
| 20260901110542 | 62 | 313 | 0.0 | 0.0 | 0.00 | 0.00 | 0.00 | 97 | 1012.1 |
| 20260901110003 | 62 | 313 | 0.0 | 0.0 | 0.00 | 0.00 | 0.00 | 97 | 1012.2 |
| 20260901105550 | 62 | 313 | 0.0 | 0.0 | 0.00 | 0.00 | 0.00 | 97 | 1012.2 |
| 20260901105029 | 62 | 313 | 0.0 | 0.0 | 0.00 | 0.00 | 0.00 | 96 | 1012.1 |
| 20260901104554 | 63 | 313 | 0.0 | 0.0 | 0.00 | 0.00 | 0.00 | 97 | 1012.2 |
| 20260901104029 | 62 | 313 | 0.0 | 0.0 | 0.00 | 0.00 | 0.00 | 97 | 1012.2 |
| 20260901103609 | 62 | 313 | 0.0 | 0.0 | 0.00 | 0.00 | 0.00 | 97 | 1012.2 |
| 20260901103036 | 62 | 313 | 0.0 | 0.0 | 0.00 | 0.00 | 0.00 | 97 | 1012.1 |
| 20260901102521 | 62 | 313 | 0.0 | 0.0 | 0.00 | 0.00 | 0.00 | 96 | 1012.1 |
| 20260901102051 | 62 | 313 | 0.0 | 0.0 | 0.00 | 0.00 | 0.00 | 96 | 1012.1 |
| 20260901101540 | 62 | 313 | 0.0 | 0.0 | 0.00 | 0.00 | 0.00 | 96 | 1012.0 |
| 20260901101017 | 62 | 313 | 0.0 | 0.0 | 0.00 | 0.00 | 0.00 | 96 | 1011.9 |
| 20260901100509 | 63 | 313 | 0.0 | 0.0 | 0.00 | 0.00 | 0.00 | 96 | 1011.9 |
| 20260901100051 | 63 | 313 | 0.0 | 0.0 | 0.00 | 0.00 | 0.00 | 97 | 1011.9 |
| 20260901095528 | 63 | 313 | 0.0 | 0.0 | 0.00 | 0.00 | 0.00 | 97 | 1012.0 |
| 20260901095056 | 63 | 313 | 0.0 | 0.0 | 0.00 | 0.00 | 0.00 | 97 | 1012.0 |
| 20260901094551 | 63 | 313 | 0.0 | 0.0 | 0.00 | 0.00 | 0.00 | 97 | 1012.0 |
| 20260901094108 | 63 | 313 | 0.0 | 0.0 | 0.00 | 0.00 | 0.00 | 97 | 1012.0 |
| 20260901093600 | 62 | 313 | 0.0 | 0.0 | 0.00 | 0.00 | 0.00 | 96 | 1011.9 |
| 20260901093059 | 62 | 313 | 0.0 | 0.0 | 0.00 | 0.00 | 0.00 | 96 | 1012.0 |
| 20260901092506 | 62 | 313 | 0.0 | 0.0 | 0.00 | 0.00 | 0.00 | 96 | 1012.0 |
| 20260901092200 | 62 | 313 | 0.0 | 0.0 | 0.00 | 0.00 | 0.00 | 96 | 1011.9 |
| 20260901091524 | 62 | 313 | 0.0 | 0.0 | 0.00 | 0.00 | 0.00 | 97 | 1011.9 |
| 20260901091058 | 62 | 313 | 0.0 | 0.0 | 0.00 | 0.00 | 0.00 | 97 | 1011.8 |
| 20260901090522 | 62 | 313 | 0.0 | 0.0 | 0.00 | 0.00 | 0.00 | 96 | 1011.7 |
| 20260901090018 | 62 | 313 | 0.0 | 0.0 | 0.00 | 0.00 | 0.00 | 96 | 1011.8 |
| 20260901085556 | 62 | 313 | 0.0 | 0.0 | 0.00 | 0.00 | 0.00 | 96 | 1011.9 |
| 20260901085030 | 62 | 313 | 0.0 | 0.0 | 0.00 | 0.00 | 0.00 | 96 | 1011.9 |
| 20260901084610 | 62 | 313 | 0.0 | 0.0 | 0.00 | 0.00 | 0.00 | 96 | 1011.9 |
| 20260901084020 | 62 | 313 | 0.0 | 0.0 | 0.00 | 0.00 | 0.00 | 96 | 1012.0 |
| 20260901083544 | 62 | 313 | 0.0 | 0.0 | 0.00 | 0.00 | 0.00 | 95 | 1011.9 |
| 20260901083014 | 62 | 313 | 0.0 | 0.0 | 0.00 | 0.00 | 0.00 | 95 | 1011.9 |
| 20260901082558 | 62 | 313 | 0.0 | 0.0 | 0.00 | 0.00 | 0.00 | 95 | 1011.9 |
| 20260901082010 | 62 | 313 | 0.0 | 0.0 | 0.00 | 0.00 | 0.00 | 96 | 1011.8 |
| 20260901081534 | 63 | 313 | 0.0 | 0.0 | 0.00 | 0.00 | 0.00 | 95 | 1011.9 |
| 20260901081002 | 63 | 313 | 0.0 | 0.0 | 0.00 | 0.00 | 0.00 | 95 | 1011.9 |
| 20260901080537 | 63 | 313 | 0.0 | 0.0 | 0.00 | 0.00 | 0.00 | 95 | 1011.8 |
| 20260901080122 | 63 | 313 | 0.0 | 0.0 | 0.00 | 0.00 | 0.00 | 95 | 1011.8 |
| 20260901075516 | 63 | 313 | 0.0 | 0.0 | 0.00 | 0.00 | 0.00 | 95 | 1011.8 |
| 20260901075100 | 63 | 313 | 0.0 | 0.0 | 0.00 | 0.00 | 0.00 | 95 | 1011.8 |
| 20260901074509 | 63 | 313 | 0.0 | 0.0 | 0.00 | 0.00 | 0.00 | 96 | 1011.7 |
| 20260901074031 | 64 | 313 | 0.0 | 0.0 | 0.00 | 0.00 | 0.00 | 95 | 1011.7 |
| 20260901073549 | 64 | 313 | 0.0 | 0.0 | 0.00 | 0.00 | 0.00 | 95 | 1011.8 |
| 20260901073016 | 64 | 313 | 0.0 | 0.0 | 0.00 | 0.00 | 0.00 | 95 | 1011.8 |
| 20260901072544 | 64 | 313 | 0.0 | 0.0 | 0.00 | 0.00 | 0.00 | 95 | 1011.9 |
| 20260901072105 | 64 | 313 | 0.0 | 0.0 | 0.00 | 0.00 | 0.00 | 95 | 1012.0 |
| 20260901071553 | 64 | 313 | 0.0 | 0.0 | 0.00 | 0.00 | 0.00 | 95 | 1012.1 |
| 20260901071011 | 64 | 313 | 0.0 | 0.0 | 0.00 | 0.00 | 0.00 | 95 | 1012.1 |
| 20260901070537 | 64 | 313 | 0.0 | 0.0 | 0.00 | 0.00 | 0.00 | 95 | 1012.2 |
| 20260901065552 | 64 | 313 | 0.0 | 0.0 | 0.00 | 0.00 | 0.00 | 95 | 1012.2 |
| 20260901065020 | 64 | 313 | 0.0 | 0.0 | 0.00 | 0.00 | 0.00 | 95 | 1012.2 |
| 20260901064540 | 64 | 313 | 0.0 | 0.0 | 0.00 | 0.00 | 0.00 | 95 | 1012.2 |
| 20260901064100 | 64 | 313 | 0.0 | 0.0 | 0.00 | 0.00 | 0.00 | 95 | 1012.3 |
| 20260901063539 | 65 | 313 | 0.0 | 0.0 | 0.00 | 0.00 | 0.00 | 95 | 1012.3 |
| 20260901063007 | 65 | 313 | 0.0 | 0.0 | 0.00 | 0.00 | 0.00 | 95 | 1012.3 |
| 20260901062527 | 65 | 313 | 0.0 | 0.0 | 0.00 | 0.00 | 0.00 | 95 | 1012.4 |
| 20260901062047 | 65 | 313 | 0.0 | 0.0 | 0.00 | 0.00 | 0.00 | 95 | 1012.5 |
| 20260901061522 | 65 | 313 | 0.0 | 0.0 | 0.00 | 0.00 | 0.00 | 94 | 1012.4 |
| 20260901061042 | 65 | 313 | 0.0 | 0.0 | 0.00 | 0.00 | 0.00 | 94 | 1012.4 |
| 20260901060602 | 65 | 313 | 0.0 | 0.0 | 0.00 | 0.00 | 0.00 | 95 | 1012.3 |
| 20260901060035 | 65 | 313 | 0.0 | 0.0 | 0.00 | 0.00 | 0.00 | 94 | 1012.2 |
| 20260901055511 | 65 | 313 | 0.0 | 0.0 | 0.00 | 0.00 | 0.00 | 94 | 1012.1 |
| 20260901055032 | 65 | 313 | 0.0 | 0.0 | 0.00 | 0.00 | 0.00 | 94 | 1012.1 |
| 20260901054556 | 66 | 313 | 0.0 | 0.0 | 0.00 | 0.00 | 0.00 | 94 | 1012.2 |
| 20260901054024 | 66 | 313 | 0.0 | 0.0 | 0.00 | 0.00 | 0.00 | 94 | 1012.1 |
| 20260901053545 | 66 | 313 | 0.0 | 0.0 | 0.00 | 0.00 | 0.00 | 94 | 1011.9 |
| 20260901053012 | 66 | 313 | 0.0 | 0.0 | 0.00 | 0.00 | 0.00 | 93 | 1012.0 |
| 20260901052531 | 66 | 313 | 0.0 | 0.0 | 0.00 | 0.00 | 0.00 | 94 | 1011.9 |
| 20260901052051 | 66 | 313 | 0.0 | 0.0 | 0.00 | 0.00 | 0.00 | 94 | 1011.9 |
| 20260901051508 | 66 | 313 | 0.0 | 0.0 | 0.00 | 0.00 | 0.00 | 94 | 1011.8 |
| 20260901051046 | 66 | 313 | 0.0 | 0.0 | 0.00 | 0.00 | 0.00 | 94 | 1011.8 |
| 20260901050520 | 66 | 313 | 0.0 | 0.0 | 0.00 | 0.00 | 0.00 | 93 | 1011.7 |
| 20260901050040 | 66 | 313 | 0.0 | 0.0 | 0.00 | 0.00 | 0.00 | 93 | 1011.6 |
| 20260901045601 | 67 | 313 | 0.0 | 0.0 | 0.00 | 0.00 | 0.00 | 93 | 1011.5 |
| 20260901045032 | 67 | 313 | 0.0 | 0.0 | 0.00 | 0.00 | 0.00 | 93 | 1011.4 |
| 20260901044604 | 67 | 313 | 0.0 | 0.0 | 0.00 | 0.00 | 0.00 | 93 | 1011.3 |
| 20260901044026 | 67 | 313 | 0.0 | 0.0 | 0.00 | 0.00 | 0.00 | 92 | 1011.3 |
| 20260901043546 | 67 | 313 | 0.0 | 0.0 | 0.00 | 0.00 | 0.00 | 92 | 1011.2 |
| 20260901043106 | 67 | 313 | 0.0 | 0.0 | 0.00 | 0.00 | 0.00 | 93 | 1011.2 |
| 20260901042517 | 68 | 313 | 0.0 | 0.0 | 0.00 | 0.00 | 0.00 | 92 | 1011.2 |
| 20260901042050 | 68 | 313 | 0.0 | 0.0 | 0.00 | 0.00 | 0.00 | 92 | 1011.2 |
| 20260901041516 | 68 | 313 | 0.0 | 0.0 | 0.00 | 0.00 | 0.00 | 92 | 1011.2 |
| 20260901041008 | 68 | 313 | 0.0 | 0.0 | 0.00 | 0.00 | 0.00 | 92 | 1011.3 |
| 20260901040528 | 68 | 313 | 0.0 | 0.0 | 0.00 | 0.00 | 0.00 | 92 | 1011.3 |
| 20260901040105 | 69 | 313 | 0.0 | 0.0 | 0.00 | 0.00 | 0.00 | 91 | 1011.3 |
| 20260901035511 | 69 | 313 | 0.0 | 0.0 | 0.00 | 0.00 | 0.00 | 92 | 1011.4 |
| 20260901035044 | 69 | 313 | 0.0 | 0.0 | 0.00 | 0.00 | 0.00 | 92 | 1011.5 |
| 20260901034524 | 69 | 313 | 0.0 | 0.0 | 0.00 | 0.00 | 0.00 | 92 | 1011.5 |
| 20260901034101 | 69 | 313 | 0.0 | 0.0 | 0.00 | 0.00 | 0.00 | 90 | 1011.5 |
| 20260901033506 | 69 | 313 | 0.0 | 0.0 | 0.00 | 0.00 | 0.00 | 91 | 1011.6 |
| 20260901033033 | 70 | 313 | 0.0 | 0.0 | 0.00 | 0.00 | 0.00 | 90 | 1011.5 |
| 20260901032610 | 70 | 313 | 0.0 | 0.0 | 0.00 | 0.00 | 0.00 | 90 | 1011.4 |
| 20260901032020 | 70 | 313 | 0.0 | 0.0 | 0.00 | 0.00 | 0.00 | 91 | 1011.3 |